SL-8 DEB, 1335

Orbit data source: Space-Track

SL-8 DEB, 1335 is space debris in LEO originally from a launch on Mon, 15 Mar 1965 UTC launched from the Tyuratam Missile And Space Complex (TTMTR). Debris objects in space refer to the collection of defunct objects orbiting the Earth. Examples of debris include non-operational satellites, rocket bodies, and fragments generated from explosions, collisions, or faulty payload assembly.

Loading next visibility...
SL-8 DEB details
Identifier
1335, 1965-020E
Orbit
LEO
Last TLE update17 hours ago
Origin
Flag of CISRVSN (CIS)
ManufacturerUnknown
MissionSpacecraft
Bus & MotorUnknown
MassUnknown
Launch date (UTC)
1965-03-15 (60 years ago)
Launch vehicleUnknown
Launch site
Tyuratam Missile And Space Complex (TTMTR)
Object type
Payload
Rocket body
Debris
Shape & HBRUnknown
Radar Cross SectionMedium (>0.1 m² and <1 m²)

Expand to show TLE details & history

TLE from 17 hours ago
0 SL-8 DEB
1 01335U 65020E   25035.53018458  .00002239  00000-0  68518-3 0  9991
2 01335  56.0736 242.5646 0533091   8.9179 352.0818 13.85305208940965
Epoch: 2025-02-04T12:43Z
Definitive object data (Epoch: 2025-02-04T12:43:27.947Z)
Latitude-0.00005°
Longitude-83.23603°
Altitude560.009 km
Speed7.779 km/s
True Right ascension16h 10m 15s
True Declination0° 00' 00"
Sunlit
Object was in daylight at TLE epoch
Visualization TLE readout
Latitude-1.2333°
Longitude-86.54833°
Altitude563.116 km
Speed7.776 km/s
Apparent Right ascension17h 37m 05s
Apparent Declination-22° 27' 10"
Sunlit
Object is in daylight
Visualization observer readout
Local Sidereal Time08:04:20
Azimuth71.821° E
Elevation-54.347°
Doppler factor1
Orbital elements
Apogee altitude1,335.323 km
Perigee altitude554.55 km
Semi-major axis7,323.074 km
Eccentricity0.0533091
Inclination56.0736°
RAAN242.5646°
Arg. of periapsis8.9179°
True anomaly351.18101°
Mean anomaly352.0818°
Eccentric anomaly351.63759°
Mean motion3.4634 °/min
BSTAR0.00068518
Orbital period103.94 mins
Loading maneuver chart data...
Loading historical data...
Loading historical data...
Loading historical data...
Loading historical data...
Loading historical data...
Loading historical data...
Loading historical data...

SL-8 DEB Visibility forecast

Observer location: undefined°, undefined

Span
Click to sort rows by Start time (UTC) header in descending order
Start Az.
Max El. time (UTC)
Max El. Az.
Max El.
End time (UTC)
End Az.
6 mins2025-02-05 14:50:14.503Z166.135° S2025-02-05 14:53:14.503Z118.085° SE18.786°2025-02-05 14:56:14.503Z75.236° E
7 mins2025-02-05 16:38:14.503Z256.411° W2025-02-05 16:40:14.503Z305.373° NW37.392°2025-02-05 16:45:14.503Z37.433° NE
5 mins2025-02-05 18:28:14.503Z323.569° NNW2025-02-05 18:30:14.503Z352.01° N16.704°2025-02-05 18:33:14.503Z25.733° NE
5 mins2025-02-05 20:18:14.503Z349.745° N2025-02-05 20:20:14.503Z13.992° NNE16.616°2025-02-05 20:23:14.503Z45.021° ENE
11 mins2025-02-05 22:05:14.503Z332.04° NNW2025-02-05 22:10:14.503Z42.872° NE31.774°2025-02-05 22:16:14.503Z99.65° ESE
12 mins2025-02-05 23:53:14.503Z305.995° NW2025-02-05 23:58:14.503Z235.196° WSW41.955°2025-02-06 00:05:14.503Z152.019° SSE
5 mins2025-02-06 01:44:14.503Z257.964° W2025-02-06 01:46:14.503Z241.052° WSW13.492°2025-02-06 01:49:14.503Z217.998° SW
|